星链-3106 (STARLINK-3106 )

导读

STARLINK-3106是美国SpaceX公司星链(Starlink)低轨卫星互联网星座的一员,于2021年9月14日由猎鹰9号运载火箭发射升空。作为星链第一代V1.5批次卫星,它重约295公斤,运行于340-614公里近地轨道,配备相控阵天线与氪离子霍尔推进器,支持激光星间链路,为全球提供高速低延迟宽带互联网接入服务,是星链全球组网的重要组成部分。

基本信息
目录编号:
49164
目录名称:
STARLINK-3106
国际标识:
2021-082AL
轨道中心:
EARTH
卫星名称:
星链-3106
卫星全名:
星链-3106 (STARLINK-3106 )
卫星状态:
在轨 (已飞行1823 天)
发射日期:
2021-09-14 UTC
国别 :
美国 (US)
星等 :
--
该卫星已列入 空间交会检测服务 Space Conjunction Data Service (SCDS) ,当前飞行风险评估等级: 高风险
轨道信息
数据来源 国际轨道数据
星历时间: 2026-09-11T11:57:00+0800
17小时前
查看轨道信息
半长轴: 6950.236km
偏心率: 0.0003073
轨道倾角: 70.000°
近地点辐角 261.981°
升交点赤经 166.803°
平近点角 98.100°
近地点: 569.963km
远地点: 574.235km
周期: 96.108分钟
每日圈数: 14.983163
详细信息
固有亮度:
5
最大亮度:
2.5
卫星平台:
Starlink v1.5
覆盖范围:
全球
运营商:
太空探索技术公司
运营商所在国:
美国
制造商(研发单位):
太空探索技术公司
制造商所在国:
美国
使用方式:
暂无
卫星简介
星链(Starlink)计划是由太空探索技术公司(SpaceX)提出的一个巨型低轨卫星互联网星座项目,计划在2019年至2024年间在太空搭建由约1.2万颗卫星组成的“星链”网络,其中1584颗将部署在地球上空550千米处的近地轨道,并从2020年开始工作。该卫星仍在工作。
2D轨道图
3D轨道图
轨道高度分析图
轨道倾角分析图
轨道综合分析图
查看轨道综合分析图
交会数据列表
事件ID 空间交会对象 最接近时刻(TCA) 交会距离 交会风险概率(CRP) 交会风险指数(CRI) 操作
CDM_260913-073104-916405-551922
2026-09-13T
07:31:05+0000
1.282 km
极远距离
1.142392E-5 中风险 0.56
与全量物体交会距离演化趋势
与全量物体交会风险概率演化趋势